Location: Beloeil
(45.5670°N, 73.2000°W)
Time: 12:35:57
(UTC-04:00)

Daily predictions for brighter satellites

Satellite Brightness Start Highest point End
(mag) Time Altitude Azimuth Time Altitude Azimuth Time Altitude Azimuth
ATLAS 2AS CENTAUR R/B 3.3 20:13:24 10° NW 20:21:19 71° WSW 20:28:33 10° SSE
Cosmos 1408 3.1 20:19:15 10° N 20:22:47 42° ENE 20:26:18 10° SSE
Cosmos 1470 Rocket 3.7 20:18:24 10° N 20:22:47 59° ENE 20:27:10 10° SSE
SL-16 R/B 3.3 20:18:49 10° SSE 20:23:08 23° ESE 20:27:28 10° NE
NOSS 0 Rocket 3.9 20:21:07 10° SSW 20:27:15 72° ESE 20:33:27 10° NNE
NOSS 3 (A) 4.4 20:24:50 10° SSW 20:27:35 70° SE 20:30:45 10° NE
Cosmos 2154 Rocket 4.5 20:29:10 10° SSW 20:35:22 68° W 20:41:36 10° N
Cosmos 2098 Rocket 3.7 20:33:21 10° SSE 20:37:04 29° E 20:40:10 10° NNE
Resurs 01 Rocket 1.6 20:37:08 10° SSE 20:41:34 83° ENE 20:46:02 10° NNW
ERS-2 3.0 20:39:02 10° S 20:42:37 52° WSW 20:46:14 10° NNW
Cosmos 1727 Rocket 4.4 20:36:51 10° N 20:42:43 43° ENE 20:48:34 10° SE
YAOGAN 6 2.8 20:39:27 10° S 20:43:04 73° W 20:46:45 10° NNW
Cosmos 405 3.9 20:39:58 10° N 20:43:08 30° ENE 20:45:47 13° SE
SJ-11-01 4.3 20:38:33 10° SSE 20:43:11 74° ENE 20:47:53 10° N
Cosmos 1151 Rocket 2.9 20:39:29 10° S 20:43:42 74° E 20:48:01 10° NNE
Spot 2 Rocket 3.5 20:38:43 10° SSE 20:43:46 68° ENE 20:48:50 10° N
Thor Agena Rocket 3.7 20:40:49 10° NNE 20:46:05 87° WNW 20:51:23 10° SSW
Cosmos 1980 3.7 20:42:01 10° SSW 20:47:43 90° SE 20:53:27 10° NNE
Meteor 2-3 Rocket 4.4 20:42:45 10° NNW 20:48:15 59° W 20:53:47 10° S
SL-8 R/B 3.7 20:46:00 10° WSW 20:50:47 82° SSE 20:55:37 10° ENE
Cosmos 1933 Rocket 3.6 20:46:42 10° N 20:51:06 84° W 20:55:26 10° S
NOSS 3-4 (A) 3.9 20:45:06 10° NW 20:52:05 73° NE 20:58:48 14° SE
NOSS 3-4 (C) 3.9 20:45:12 10° NW 20:52:11 73° NE 20:58:53 14° SE
Cosmos 2297 3.9 20:48:55 10° NNW 20:54:33 60° ENE 20:59:24 14° SE
Cosmos 2369 Rocket 4.0 20:50:55 10° N 20:54:42 18° NE 20:58:26 10° E
Cosmos 1455 3.6 20:52:31 10° SSW 20:56:10 41° WNW 20:59:52 10° N
Cosmos 2218 Rocket 4.0 20:56:58 10° S 21:03:19 77° E 21:09:45 10° N
Terra 4.0 21:02:27 10° ENE 21:03:25 11° NE 21:04:22 10° NE
Cosmos 1869 3.2 20:59:30 10° S 21:03:29 76° E 21:07:32 10° NNE
Cosmos 1441 Rocket 3.9 21:02:09 16° SSE 21:04:39 33° E 21:08:03 10° NNE
Cosmos 2333 Rocket 3.5 21:00:12 10° SW 21:05:36 45° WNW 21:11:02 10° NNE
Cosmos 1707 Rocket 4.5 21:05:01 18° SE 21:07:14 28° E 21:10:57 10° NNE
Resurs 1-3 4.4 21:03:16 10° S 21:07:32 51° W 21:11:50 10° NNW
Cosmos 2219 Rocket 3.8 21:02:42 10° WSW 21:07:56 38° NW 21:13:12 10° NNE
Cosmos 2366 rocket 4.0 21:04:18 10° S 21:10:32 79° E 21:16:52 10° N
ATLAS CENTAUR R/B 3.4 21:08:11 10° WSW 21:11:26 28° NW 21:14:52 10° NNE
ATLAS 5 CENTAUR R/B 3.7 21:07:42 10° NNW 21:12:31 27° NE 21:17:17 12° E
ERS-1 Rocket 3.7 21:09:54 19° ESE 21:12:56 37° ENE 21:17:33 10° N
Cosmos 1869 Rocket 3.7 21:09:52 10° N 21:14:10 54° ENE 21:16:54 21° SSE
Cosmos 2237 Rocket 2.7 21:08:43 10° SW 21:14:17 62° WNW 21:19:54 10° NNE
Cosmos 1939 Rocket 4.4 21:10:58 10° SSW 21:14:31 34° W 21:18:09 10° NNW
SL-8 Rocket 4.3 21:11:38 10° SSW 21:17:55 72° W 21:24:12 10° N
SL-08 RB Rocket 4.2 21:15:44 22° SE 21:18:13 43° ENE 21:22:27 10° N
USA 186 4.2 21:19:06 10° WSW 21:20:02 12° W 21:20:58 10° WNW
Cosmos 407 Rocket 3.5 21:15:03 10° NNW 21:20:12 81° WSW 21:24:13 17° SSE
Cosmos 1733 Rocket 4.5 21:18:57 10° NNE 21:22:20 21° ENE 21:23:26 19° E
Cosmos 2278 Rocket 3.6 21:17:17 10° NW 21:22:24 35° WSW 21:27:30 10° S
Cosmos 1339 Rocket 4.5 21:16:34 10° N 21:22:41 86° W 21:28:51 10° S
Lacrosse 5 2.9 21:27:38 10° NW 21:32:22 38° NNE 21:35:36 18° E
Cosmos 1825 4.1 21:32:04 10° NNW 21:35:20 28° W 21:38:35 10° SSW
SPOT 5 3.5 21:35:32 28° ESE 21:36:59 35° ENE 21:41:01 10° N
Cosmos 405 Rocket 2.6 21:35:30 20° S 21:38:05 79° E 21:42:03 10° NNE
USA 81 4.0 21:32:57 10° N 21:38:16 86° W 21:42:17 18° S
SPOT 1/Viking Rocket 4.2 21:36:09 27° ESE 21:38:19 39° ENE 21:43:09 10° N
Cosmos 1023 Rocket 4.4 21:37:19 10° NNW 21:42:30 85° ENE 21:45:04 30° SSE
Cosmos 676 Rocket 4.0 21:38:48 10° NNW 21:44:05 81° WSW 21:46:58 27° SSE
H-2A R/B 1.9 21:43:19 28° SSE 21:45:59 80° ENE 21:50:56 10° NNW
Cosmos 1437 Rocket 3.3 21:44:26 10° N 21:48:07 39° ENE 21:48:33 38° E
CZ-4C R/B 2.3 21:44:58 16° S 21:48:51 45° ESE 21:54:26 10° NE
MetOp-B 4.1 21:47:56 25° S 21:51:08 83° WSW 21:56:32 10° NNW
OE (NEXTSAT) 4.2 21:49:22 10° W 21:52:55 73° SSW 21:53:16 66° SSE
Cosmos 1862 4.0 21:50:58 10° NNW 21:54:54 53° W 21:56:57 25° SSW
ARGOS 3.3 21:51:36 22° S 21:55:03 69° WSW 22:00:25 10° NNW
Meteor 2-10 Rocket 4.5 21:49:45 10° SSW 21:55:24 55° WNW 22:01:08 10° N
Cosmos 1943 Rocket 3.3 21:51:37 10° N 21:56:32 31° NE 21:58:32 25° E
Cosmos 1934 Rocket 4.2 21:56:41 34° SE 21:58:48 47° E 22:04:33 10° NNE
Cosmos 1452 Rocket 3.4 21:55:08 15° SSW 21:59:32 77° ESE 22:04:48 10° NNE
Cosmos 2242 Rocket 3.9 22:02:41 43° E 22:02:45 43° E 22:06:56 10° NNE
USA 245 4.1 22:04:51 28° NNW 22:04:51 28° NNW 22:06:04 10° NNW
Helios 1B rocket 2.9 22:01:22 10° NNE 22:04:56 41° E 22:04:56 41° E
BREEZE M DEB (TANK) 4.3 21:47:54 10° W 22:05:32 71° NNW 22:09:52 13° ENE
RESURS DK-1 3.4 22:01:49 10° N 22:05:37 33° NE 22:06:05 32° ENE
Cosmos 1140 Rocket 3.8 22:01:04 10° NNW 22:06:11 62° WSW 22:08:24 33° S
SL-16 R/B 2.8 22:01:14 10° SW 22:06:49 58° WNW 22:12:25 10° NNE
Cosmos 1850 Rocket 3.9 22:10:07 10° NNW 22:15:20 76° ENE 22:16:35 52° SE
Gblst 52 Del rocket 4.0 22:10:16 10° SW 22:15:42 58° SE 22:21:08 10° ENE
Cosmos 921 Rocket 3.4 22:21:56 49° ENE 22:21:56 49° ENE 22:25:29 10° NNE
Cosmos 2344 3.5 22:14:34 10° SSW 22:22:10 85° SE 22:30:44 10° NE
Landsat 7 3.7 22:21:41 60° SE 22:22:26 74° ENE 22:27:12 10° N
Cosmos 1862 Rocket 3.5 22:23:56 64° E 22:23:56 64° E 22:28:12 10° NNE
Cosmos 1741 Rocket 3.9 22:19:38 10° NNW 22:25:00 87° ENE 22:26:10 56° SSE
Cosmos 1821 Rocket 4.1 22:26:23 24° SSW 22:30:22 75° W 22:36:41 10° N
SL-8 R/B 4.1 22:28:47 10° W 22:33:33 61° N 22:35:24 35° ENE
Cosmos 1603 3.5 22:31:54 38° SSW 22:34:08 83° ESE 22:39:47 10° NNE
Cosmos 1943 3.4 22:34:58 49° E 22:34:58 49° E 22:40:13 10° NE
Cosmos 1606 3.8 22:38:26 37° NE 22:38:26 37° NE 22:41:02 10° NNE
Helios 1A 3.7 22:37:13 41° WSW 22:37:48 44° W 22:41:49 10° NNW
Cosmos 2369 Rocket 2.1 22:33:54 10° NNW 22:39:39 84° ENE 22:40:37 63° SE
Terra 1.7 22:40:06 73° E 22:40:18 74° ENE 22:45:05 10° N
Cosmos 1461 3.9 22:38:26 10° NNW 22:43:01 43° NE 22:43:21 42° ENE
CZ-2C R/B 3.7 22:39:47 10° NNE 22:43:41 30° ENE 22:43:41 30° ENE
USA 267 3.3 22:39:42 10° ENE 22:46:04 52° SE 22:46:13 52° SE
Cosmos 2123 Rocket 4.0 22:40:41 10° N 22:47:00 77° W 22:48:49 48° S
Cosmos 2263 4.1 22:41:50 10° NNW 22:47:28 71° ENE 22:48:08 64° ESE
ERS-1 Rocket 4.5 22:49:54 23° SW 22:51:47 29° W 22:56:09 10° NW
Meteor 1-29 4.5 22:49:36 10° N 22:51:42 34° N 22:51:42 34° N
Cosmos 1633 3.9 22:52:06 10° NNW 22:54:39 38° NW 22:54:39 38° NW
IGS 5A 3.8 22:56:33 61° WNW 22:56:33 61° WNW 23:00:15 10° NNW
ATLAS 5 CENTAUR R/B 2.3 22:51:55 10° NW 22:57:51 85° SW 22:58:49 66° SSE
Cosmos 1782 3.9 22:59:50 41° NNE 22:59:50 41° NNE 23:02:30 10° N
Cosmos 1733 Rocket 4.1 22:56:14 10° NNW 23:00:17 38° W 23:00:32 37° W
CARTOSAT-1 4.0 23:01:59 57° WNW 23:01:59 57° WNW 23:05:53 10° NNW
Cosmos 1331 Rocket 4.4 23:02:57 52° ENE 23:02:57 52° ENE 23:07:14 10° NNE
Meteor 1-4 Rocket 4.2 22:59:54 10° NNW 23:02:05 30° NW 23:02:05 30° NW
GEOS 3 Rocket 3.7 23:00:53 10° NE 23:06:16 77° NW 23:08:06 42° SW
Cosmos 2173 Rocket 4.4 23:12:05 47° E 23:12:05 47° E 23:17:58 10° NNE
Cosmos 389 Rocket 4.5 23:09:38 10° N 23:11:21 27° N 23:11:21 27° N
CZ-2C R/B 2.9 23:14:32 73° NNW 23:14:32 73° NNW 23:18:59 10° NNW
SPOT 5 4.3 23:14:46 24° WSW 23:15:09 25° W 23:18:48 10° NW
Lacrosse 5 2.3 23:10:35 10° NW 23:14:47 52° W 23:14:47 52° W
Okean 1-7 4.2 23:21:07 36° NNE 23:21:07 36° NNE 23:23:46 10° NNE
Sich 1 Rocket 4.1 23:15:29 10° NNW 23:19:17 59° NNW 23:19:17 59° NNW
Cosmos 1486 Rocket 4.4 23:15:10 10° NNW 23:20:04 55° NE 23:20:04 55° NE
USA 234 3.6 23:18:28 39° E 23:20:52 60° NNE 23:27:18 10° NW
Cosmos 1605 Rocket 4.3 23:19:15 46° SW 23:20:59 63° W 23:27:22 10° N
Cosmos 1782 Rocket 4.3 23:21:06 10° N 23:24:33 53° NNW 23:24:33 53° NNW
H-2A R/B 4.4 23:23:56 11° WSW 23:25:59 13° W 23:28:17 10° WNW
Okean 2 Rocket 4.1 23:26:39 10° N 23:29:43 42° NNE 23:29:43 42° NNE
Cosmos 1110 Rocket 4.2 23:31:34 70° WNW 23:31:34 70° WNW 23:36:49 10° NNE
Meteor 2-6 Rocket 4.3 23:36:38 72° W 23:36:54 73° WNW 23:42:51 10° N
CZ-4C R/B 3.5 23:32:26 10° WSW 23:37:27 38° NW 23:43:16 10° NNE
SeaSat 1 4.0 23:39:14 26° ENE 23:39:37 27° NE 23:43:43 10° N
Cosmos 1459 Rocket 3.9 23:40:21 76° ENE 23:40:21 76° ENE 23:46:18 10° N
Cosmos 1943 Rocket 2.8 23:35:11 10° NW 23:40:03 45° W 23:40:03 45° W
Cosmos 1656 Rocket 3.7 23:36:41 10° NNW 23:42:01 76° N 23:42:01 76° N
Meteor 2-12 Rocket 4.5 23:47:15 65° ENE 23:47:15 65° ENE 23:52:47 10° NNE
Tsikada Rocket 4.4 23:46:39 10° N 23:52:39 50° ENE 23:52:39 50° ENE
